^^
Datos históricos de la estación: Murcia-Puente Tocinos
Diario Informe para Mayo 25, 2019 Unidades:  Métrico    Inglés   Ambas
Diario Semanal Mensual Anual Configurable
  Máximo: Mínimo: Media:
Temperatura: 23.4 °C 15.6 °C 19 °C
Punto de rocio: 13.2 °C 8.6 °C 10.7 °C
Humedad: 75% 45% 59%
Velocidad viento: 16.1km/h 0.0km/h 8.1km/h
Racha viento: 27.8km/h - -
Viento- - SSE
Presión: 1017.1 hPa 1013.0 hPa -
Precipitación: 0.0 mm    
Historical Graphs
 
 
Tabla de datos para Mayo 25, 2019
Hora Temperatura Punto de rocio Presión Viento Velocidad viento Racha viento Humedad Intensidad lluvia(por hora) Nubes
00:04 16.4 °C 11.3 °C 1014.1 hPa South 6.9 km/h 12.2 km/h 72% 0.0 mm RA
00:09 16.4 °C 11.3 °C 1014.1 hPa WSW 8.7 km/h 13.7 km/h 72% 0.0 mm RA
00:14 16.4 °C 11.3 °C 1014.1 hPa WSW 8.7 km/h 11.1 km/h 72% 0.0 mm CLR
00:19 16.3 °C 11.2 °C 1014.2 hPa SW 7.6 km/h 13.0 km/h 72% 0.0 mm CLR
00:24 16.3 °C 11.4 °C 1014.2 hPa SW 7.6 km/h 9.3 km/h 73% 0.0 mm CLR
00:29 16.2 °C 11.6 °C 1014.2 hPa WSW 7.6 km/h 13.0 km/h 74% 0.0 mm CLR
00:34 16.2 °C 11.6 °C 1014.3 hPa SW 7.6 km/h 7.4 km/h 74% 0.0 mm CLR
00:39 16.1 °C 11.4 °C 1014.3 hPa SW 6.9 km/h 9.3 km/h 74% 0.0 mm CLR
00:44 16.2 °C 11.8 °C 1014.3 hPa SSW 6.9 km/h 6.9 km/h 75% 0.0 mm CLR
00:49 16.2 °C 11.6 °C 1014.3 hPa SW 5.8 km/h 11.1 km/h 74% 0.0 mm CLR
00:54 16.2 °C 11.6 °C 1014.3 hPa SSW 5.8 km/h 11.1 km/h 74% 0.0 mm CLR
00:59 16.2 °C 11.6 °C 1014.3 hPa SSW 7.6 km/h 14.8 km/h 74% 0.0 mm CLR
01:04 16.0 °C 11.4 °C 1014.2 hPa SSW 7.6 km/h 14.8 km/h 74% 0.0 mm CLR
01:09 15.9 °C 11.3 °C 1014.2 hPa SSW 10.0 km/h 10.3 km/h 74% 0.0 mm CLR
01:14 15.9 °C 11.3 °C 1014.2 hPa SSW 10.0 km/h 14.8 km/h 74% 0.0 mm CLR
01:19 15.9 °C 11.3 °C 1014.3 hPa SSE 8.7 km/h 13.0 km/h 74% 0.0 mm CLR
01:24 15.9 °C 11.3 °C 1014.3 hPa SW 8.7 km/h 9.3 km/h 74% 0.0 mm CLR
01:29 15.9 °C 11.1 °C 1014.3 hPa SSW 6.9 km/h 10.3 km/h 73% 0.0 mm CLR
01:34 15.9 °C 11.1 °C 1014.2 hPa SSW 6.9 km/h 9.3 km/h 73% 0.0 mm CLR
01:39 16.0 °C 11.2 °C 1014.2 hPa WNW 5.8 km/h 7.4 km/h 73% 0.0 mm CLR
01:44 16.0 °C 11.2 °C 1014.2 hPa SW 5.8 km/h 9.3 km/h 73% 0.0 mm CLR
01:49 16.0 °C 11.2 °C 1014.0 hPa SW 6.4 km/h 9.3 km/h 73% 0.0 mm CLR
01:54 16.0 °C 10.9 °C 1014.0 hPa SW 6.4 km/h 9.3 km/h 72% 0.0 mm CLR
01:59 16.0 °C 10.7 °C 1014.0 hPa SSW 8.4 km/h 11.1 km/h 71% 0.0 mm CLR
02:04 16.0 °C 10.6 °C 1013.7 hPa SSW 8.4 km/h 13.0 km/h 70% 0.0 mm CLR
02:09 16.0 °C 10.7 °C 1013.7 hPa SSW 10.0 km/h 13.0 km/h 71% 0.0 mm CLR
02:14 15.9 °C 10.8 °C 1013.7 hPa SSW 10.0 km/h 14.8 km/h 72% 0.0 mm CLR
02:19 15.9 °C 10.7 °C 1013.6 hPa SW 9.5 km/h 11.1 km/h 71% 0.0 mm CLR
02:24 15.9 °C 10.7 °C 1013.6 hPa SW 9.5 km/h 11.1 km/h 71% 0.0 mm CLR
02:29 16.0 °C 10.6 °C 1013.6 hPa West 6.4 km/h 9.3 km/h 70% 0.0 mm CLR
02:34 16.1 °C 10.4 °C 1013.7 hPa SW 6.4 km/h 13.0 km/h 69% 0.0 mm CLR
02:39 16.1 °C 10.4 °C 1013.7 hPa SW 6.9 km/h 11.1 km/h 69% 0.0 mm CLR
02:44 16.2 °C 10.5 °C 1013.7 hPa SW 6.9 km/h 14.8 km/h 69% 0.0 mm CLR
02:49 16.1 °C 10.2 °C 1013.5 hPa SSW 8.4 km/h 13.0 km/h 68% 0.0 mm CLR
02:54 16.1 °C 10.2 °C 1013.5 hPa South 8.4 km/h 14.8 km/h 68% 0.0 mm CLR
02:59 16.0 °C 10.1 °C 1013.5 hPa SW 9.5 km/h 14.8 km/h 68% 0.0 mm CLR
03:04 16.0 °C 10.1 °C 1013.3 hPa SSW 9.5 km/h 13.0 km/h 68% 0.0 mm CLR
03:09 16.1 °C 9.9 °C 1013.3 hPa SW 8.7 km/h 9.5 km/h 67% 0.0 mm CLR
03:14 16.1 °C 9.9 °C 1013.3 hPa SW 8.7 km/h 14.0 km/h 67% 0.0 mm CLR
03:19 16.1 °C 9.7 °C 1013.3 hPa WSW 7.6 km/h 11.1 km/h 66% 0.0 mm CLR
03:24 16.2 °C 9.8 °C 1013.3 hPa West 7.6 km/h 9.3 km/h 66% 0.0 mm CLR
03:29 16.2 °C 9.8 °C 1013.3 hPa WSW 7.6 km/h 10.3 km/h 66% 0.0 mm CLR
03:34 16.2 °C 9.8 °C 1013.2 hPa SW 7.6 km/h 13.0 km/h 66% 0.0 mm CLR
03:39 16.1 °C 9.7 °C 1013.2 hPa SSW 6.9 km/h 8.4 km/h 66% 0.0 mm CLR
03:44 16.1 °C 9.7 °C 1013.2 hPa SW 6.9 km/h 7.4 km/h 66% 0.0 mm CLR
03:49 16.1 °C 9.7 °C 1013.2 hPa SSE 5.8 km/h 9.5 km/h 66% 0.0 mm CLR
03:54 16.1 °C 9.7 °C 1013.2 hPa SSW 5.8 km/h 13.7 km/h 66% 0.0 mm CLR
03:59 16.0 °C 9.7 °C 1013.2 hPa SSW 8.4 km/h 11.1 km/h 66% 0.0 mm CLR
04:04 16.0 °C 9.7 °C 1013.1 hPa SW 8.4 km/h 11.1 km/h 66% 0.0 mm CLR
04:09 15.9 °C 9.6 °C 1013.1 hPa SSW 7.6 km/h 7.4 km/h 66% 0.0 mm CLR
04:14 15.9 °C 9.6 °C 1013.1 hPa SSW 7.6 km/h 9.3 km/h 66% 0.0 mm CLR
04:19 15.9 °C 9.6 °C 1013.1 hPa SW 5.8 km/h 11.1 km/h 66% 0.0 mm CLR
04:24 15.9 °C 9.3 °C 1013.1 hPa South 5.8 km/h 11.1 km/h 65% 0.0 mm CLR
04:29 15.8 °C 9.2 °C 1013.1 hPa SW 7.6 km/h 9.3 km/h 65% 0.0 mm CLR
04:34 15.9 °C 9.3 °C 1013.1 hPa SSW 7.6 km/h 7.4 km/h 65% 0.0 mm CLR
04:39 15.9 °C 9.1 °C 1013.1 hPa South 6.4 km/h 7.6 km/h 64% 0.0 mm CLR
04:44 15.9 °C 9.1 °C 1013.1 hPa SW 6.4 km/h 11.1 km/h 64% 0.0 mm CLR
04:49 15.9 °C 9.1 °C 1013.1 hPa SW 6.4 km/h 7.4 km/h 64% 0.0 mm CLR
04:54 16.0 °C 9.2 °C 1013.1 hPa SW 6.4 km/h 8.7 km/h 64% 0.0 mm CLR
04:59 16.0 °C 9.2 °C 1013.1 hPa SW 6.4 km/h 7.4 km/h 64% 0.0 mm CLR
05:04 16.0 °C 8.9 °C 1013.1 hPa SW 6.4 km/h 9.3 km/h 63% 0.0 mm CLR
05:09 16.0 °C 8.9 °C 1013.1 hPa SW 4.7 km/h 7.4 km/h 63% 0.0 mm CLR
05:14 15.9 °C 8.8 °C 1013.1 hPa SW 4.7 km/h 5.6 km/h 63% 0.0 mm CLR
05:19 16.0 °C 9.4 °C 1013.1 hPa SW 2.9 km/h 3.7 km/h 65% 0.0 mm CLR
05:24 15.9 °C 9.6 °C 1013.1 hPa SW 2.9 km/h   66% 0.0 mm CLR
05:29 15.9 °C 8.8 °C 1013.1 hPa Calm   7.4 km/h 63% 0.0 mm CLR
05:34 15.9 °C 8.8 °C 1013.1 hPa Calm   7.4 km/h 63% 0.0 mm CLR
05:39 15.9 °C 8.8 °C 1013.1 hPa SW 5.0 km/h 7.4 km/h 63% 0.0 mm CLR
05:44 15.9 °C 8.8 °C 1013.1 hPa WSW 5.0 km/h 9.3 km/h 63% 0.0 mm CLR
05:49 15.9 °C 8.8 °C 1013.0 hPa SW 5.8 km/h 7.4 km/h 63% 0.0 mm CLR
05:54 15.8 °C 8.8 °C 1013.0 hPa SW 5.8 km/h 5.8 km/h 63% 0.0 mm CLR
05:59 15.8 °C 8.8 °C 1013.0 hPa SW 4.7 km/h 7.4 km/h 63% 0.0 mm CLR
06:04 15.8 °C 8.8 °C 1013.0 hPa SW 4.7 km/h 7.4 km/h 63% 0.0 mm CLR
06:09 15.7 °C 8.7 °C 1013.0 hPa SSW 5.8 km/h 7.6 km/h 63% 0.0 mm CLR
06:14 15.8 °C 8.8 °C 1013.0 hPa SSW 5.8 km/h 7.4 km/h 63% 0.0 mm CLR
06:19 15.7 °C 8.7 °C 1013.1 hPa SSW 5.8 km/h 9.3 km/h 63% 0.0 mm CLR
06:24 15.7 °C 8.7 °C 1013.1 hPa SSW 5.8 km/h 9.3 km/h 63% 0.0 mm CLR
06:29 15.7 °C 8.7 °C 1013.1 hPa SSW 7.6 km/h 13.0 km/h 63% 0.0 mm CLR
06:34 15.7 °C 8.7 °C 1013.1 hPa SW 7.6 km/h 9.3 km/h 63% 0.0 mm CLR
06:39 15.6 °C 8.6 °C 1013.1 hPa SW 8.4 km/h 9.3 km/h 63% 0.0 mm CLR
06:44 15.6 °C 8.6 °C 1013.1 hPa SSW 8.4 km/h 9.3 km/h 63% 0.0 mm CLR
06:49 15.6 °C 8.6 °C 1013.2 hPa SSW 5.8 km/h 8.4 km/h 63% 0.0 mm CLR
06:54 15.6 °C 8.8 °C 1013.2 hPa SSW 5.8 km/h 9.3 km/h 64% 0.0 mm CLR
06:59 15.6 °C 8.8 °C 1013.2 hPa SSW 6.4 km/h 13.0 km/h 64% 0.0 mm CLR
07:04 15.6 °C 8.8 °C 1013.3 hPa SSW 6.4 km/h 9.5 km/h 64% 0.0 mm CLR
07:09 15.6 °C 8.8 °C 1013.3 hPa South 6.9 km/h 13.0 km/h 64% 0.0 mm CLR
07:14 15.6 °C 8.8 °C 1013.3 hPa South 6.9 km/h 7.4 km/h 64% 0.0 mm CLR
07:19 15.6 °C 8.8 °C 1013.3 hPa South 6.4 km/h 11.1 km/h 64% 0.0 mm CLR
07:24 15.6 °C 9.1 °C 1013.3 hPa SSW 6.4 km/h 14.8 km/h 65% 0.0 mm CLR
07:29 15.6 °C 9.1 °C 1013.3 hPa SSW 9.5 km/h 13.0 km/h 65% 0.0 mm CLR
07:34 15.6 °C 9.1 °C 1013.3 hPa SW 9.5 km/h 13.0 km/h 65% 0.0 mm CLR
07:39 15.6 °C 8.8 °C 1013.3 hPa SSW 8.7 km/h 9.3 km/h 64% 0.0 mm CLR
07:44 15.7 °C 8.9 °C 1013.3 hPa South 8.7 km/h 11.1 km/h 64% 0.0 mm CLR
07:49 15.7 °C 8.9 °C 1013.5 hPa SW 7.6 km/h 11.1 km/h 64% 0.0 mm CLR
07:54 15.8 °C 9.0 °C 1013.5 hPa SW 7.6 km/h 7.4 km/h 64% 0.0 mm CLR
07:59 15.8 °C 8.8 °C 1013.5 hPa SW 5.8 km/h 9.3 km/h 63% 0.0 mm CLR
08:04 15.9 °C 8.8 °C 1013.7 hPa South 5.8 km/h 9.3 km/h 63% 0.0 mm CLR
08:09 15.9 °C 8.8 °C 1013.7 hPa South 6.4 km/h 5.0 km/h 63% 0.0 mm CLR
08:14 16.0 °C 8.9 °C 1013.7 hPa SW 6.4 km/h 9.3 km/h 63% 0.0 mm CLR
08:19 16.1 °C 8.8 °C 1013.9 hPa South 4.7 km/h 11.1 km/h 62% 0.0 mm CLR
08:24 16.1 °C 8.8 °C 1013.9 hPa South 4.7 km/h 13.0 km/h 62% 0.0 mm CLR
08:29 16.1 °C 8.8 °C 1013.9 hPa SSW 9.5 km/h 14.8 km/h 62% 0.0 mm CLR
08:34 16.1 °C 9.1 °C 1013.9 hPa South 9.5 km/h 14.8 km/h 63% 0.0 mm CLR
08:39 16.1 °C 8.8 °C 1013.9 hPa SSW 10.0 km/h 13.0 km/h 62% 0.0 mm CLR
08:44 16.2 °C 8.9 °C 1013.9 hPa SW 10.0 km/h 11.1 km/h 62% 0.0 mm CLR
08:49 16.3 °C 9.0 °C 1014.0 hPa South 9.5 km/h 18.5 km/h 62% 0.0 mm CLR
08:54 16.4 °C 9.1 °C 1014.0 hPa SSW 9.5 km/h 13.7 km/h 62% 0.0 mm CLR
08:59 16.4 °C 9.1 °C 1014.0 hPa South 10.3 km/h 14.8 km/h 62% 0.0 mm CLR
09:04 16.6 °C 9.3 °C 1013.9 hPa SSW 10.3 km/h 14.8 km/h 62% 0.0 mm CLR
09:09 16.7 °C 9.4 °C 1013.9 hPa South 9.5 km/h 13.0 km/h 62% 0.0 mm CLR
09:14 16.8 °C 9.5 °C 1013.9 hPa WSW 9.5 km/h 11.1 km/h 62% 0.0 mm CLR
09:19 16.9 °C 9.6 °C 1014.2 hPa SW 8.4 km/h 11.1 km/h 62% 0.0 mm CLR
09:24 17.1 °C 9.8 °C 1014.2 hPa SSW 8.4 km/h 12.2 km/h 62% 0.0 mm CLR
09:29 17.2 °C 9.8 °C 1014.2 hPa West 7.6 km/h 9.3 km/h 62% 0.0 mm CLR
09:34 17.3 °C 9.7 °C 1014.3 hPa SW 7.6 km/h 11.1 km/h 61% 0.0 mm CLR
09:39 17.5 °C 9.9 °C 1014.3 hPa WSW 6.4 km/h 9.3 km/h 61% 0.0 mm CLR
09:44 17.8 °C 9.9 °C 1014.3 hPa SW 6.4 km/h 8.4 km/h 60% 0.0 mm CLR
09:49 18.2 °C 10.1 °C 1014.2 hPa WSW 5.8 km/h 11.1 km/h 59% 0.0 mm CLR
09:54 18.3 °C 10.2 °C 1014.2 hPa SSW 5.8 km/h 14.8 km/h 59% 0.0 mm CLR
09:59 18.3 °C 10.4 °C 1014.2 hPa WNW 8.4 km/h 9.3 km/h 60% 0.0 mm CLR
10:04 18.4 °C 10.2 °C 1014.5 hPa West 8.4 km/h 13.0 km/h 59% 0.0 mm CLR
10:09 18.4 °C 10.2 °C 1014.5 hPa WNW 6.9 km/h 11.1 km/h 59% 0.0 mm CLR
10:14 18.5 °C 10.3 °C 1014.5 hPa West 6.9 km/h 16.4 km/h 59% 0.0 mm CLR
10:19 18.5 °C 10.3 °C 1014.5 hPa SW 9.5 km/h 14.8 km/h 59% 0.0 mm CLR
10:24 18.6 °C 10.4 °C 1014.5 hPa WSW 9.5 km/h 13.7 km/h 59% 0.0 mm CLR
10:29 18.4 °C 10.2 °C 1014.5 hPa SW 9.5 km/h 8.4 km/h 59% 0.0 mm CLR
10:34 18.6 °C 10.4 °C 1014.5 hPa WSW 9.5 km/h 9.3 km/h 59% 0.0 mm CLR
10:39 18.7 °C 10.5 °C 1014.5 hPa WNW 6.9 km/h 13.0 km/h 59% 0.0 mm CLR
10:44 18.9 °C 10.4 °C 1014.5 hPa SW 6.9 km/h 9.3 km/h 58% 0.0 mm CLR
10:49 19.0 °C 10.6 °C 1014.6 hPa West 6.9 km/h 9.3 km/h 58% 0.0 mm CLR
10:54 19.1 °C 10.4 °C 1014.6 hPa West 6.9 km/h 14.8 km/h 57% 0.0 mm CLR
10:59 19.2 °C 10.2 °C 1014.6 hPa WNW 8.4 km/h 14.8 km/h 56% 0.0 mm CLR
11:04 19.2 °C 10.4 °C 1014.7 hPa WNW 8.4 km/h 14.8 km/h 57% 0.0 mm CLR
11:09 19.2 °C 10.4 °C 1014.7 hPa WSW 8.7 km/h 11.1 km/h 57% 0.0 mm CLR
11:14 19.4 °C 10.4 °C 1014.7 hPa NW 8.7 km/h 16.1 km/h 56% 0.0 mm CLR
11:19 19.3 °C 10.3 °C 1014.8 hPa WNW 8.7 km/h 13.0 km/h 56% 0.0 mm CLR
11:24 19.3 °C 10.3 °C 1014.8 hPa WNW 8.7 km/h 13.0 km/h 56% 0.0 mm CLR
11:29 19.2 °C 10.2 °C 1014.8 hPa WSW 9.5 km/h 11.1 km/h 56% 0.0 mm CLR
11:34 19.3 °C 10.3 °C 1014.8 hPa West 9.5 km/h 14.8 km/h 56% 0.0 mm CLR
11:39 19.3 °C 10.3 °C 1014.8 hPa WSW 7.6 km/h 13.0 km/h 56% 0.0 mm CLR
11:44 19.4 °C 10.4 °C 1014.8 hPa WNW 7.6 km/h 13.0 km/h 56% 0.0 mm CLR
11:49 19.4 °C 10.4 °C 1014.9 hPa NW 7.6 km/h 11.1 km/h 56% 0.0 mm CLR
11:54 19.6 °C 10.6 °C 1014.9 hPa WNW 7.6 km/h 11.1 km/h 56% 0.0 mm CLR
11:59 19.8 °C 10.8 °C 1014.9 hPa SW 6.4 km/h 7.4 km/h 56% 0.0 mm CLR
12:04 20.3 °C 10.9 °C 1014.8 hPa West 6.4 km/h 9.5 km/h 55% 0.0 mm CLR
12:09 20.7 °C 10.8 °C 1014.8 hPa NNE 5.0 km/h 10.0 km/h 53% 0.0 mm CLR
12:14 20.7 °C 10.5 °C 1014.8 hPa WSW 5.0 km/h 11.9 km/h 52% 0.0 mm CLR
12:19 20.7 °C 11.1 °C 1014.9 hPa WNW 7.6 km/h 9.3 km/h 54% 0.0 mm CLR
12:24 20.7 °C 10.5 °C 1014.9 hPa NW 7.6 km/h 7.4 km/h 52% 0.0 mm CLR
12:29 20.7 °C 10.8 °C 1014.9 hPa West 5.0 km/h 11.1 km/h 53% 0.0 mm CLR
12:34 20.8 °C 10.9 °C 1014.9 hPa NW 5.0 km/h 9.5 km/h 53% 0.0 mm CLR
12:39 20.9 °C 10.9 °C 1014.9 hPa West 5.8 km/h 7.4 km/h 53% 0.0 mm CLR
12:44 21.1 °C 10.8 °C 1014.9 hPa SSW 5.8 km/h 7.4 km/h 52% 0.0 mm CLR
12:49 21.5 °C 10.9 °C 1014.9 hPa NW 4.7 km/h 7.4 km/h 51% 0.0 mm CLR
12:54 21.5 °C 10.9 °C 1014.9 hPa NE 4.7 km/h 13.0 km/h 51% 0.0 mm CLR
12:59 21.3 °C 10.7 °C 1014.9 hPa NE 8.7 km/h 14.8 km/h 51% 0.0 mm CLR
13:04 21.4 °C 11.1 °C 1014.9 hPa NW 8.7 km/h 13.0 km/h 52% 0.0 mm CLR
13:09 21.6 °C 11.0 °C 1014.9 hPa NNW 9.5 km/h 13.7 km/h 51% 0.0 mm CLR
13:14 21.6 °C 10.7 °C 1014.9 hPa North 9.5 km/h 11.1 km/h 50% 0.0 mm CLR
13:19 21.6 °C 10.7 °C 1014.9 hPa NNE 6.9 km/h 14.8 km/h 50% 0.0 mm CLR
13:24 21.4 °C 10.6 °C 1014.9 hPa NNW 6.9 km/h 11.1 km/h 50% 0.0 mm CLR
13:29 21.4 °C 10.8 °C 1014.9 hPa NE 8.4 km/h 11.1 km/h 51% 0.0 mm CLR
13:34 21.4 °C 11.1 °C 1014.8 hPa NNW 8.4 km/h 13.0 km/h 52% 0.0 mm CLR
13:39 21.4 °C 10.8 °C 1014.8 hPa NW 7.6 km/h 13.0 km/h 51% 0.0 mm CLR
13:44 21.6 °C 11.0 °C 1014.8 hPa NE 7.6 km/h 14.8 km/h 51% 0.0 mm CLR
13:49 21.4 °C 10.8 °C 1014.7 hPa NNE 9.5 km/h 18.3 km/h 51% 0.0 mm CLR
13:54 21.3 °C 10.7 °C 1014.7 hPa NNE 9.5 km/h 11.1 km/h 51% 0.0 mm CLR
13:59 21.3 °C 10.7 °C 1014.7 hPa ENE 10.0 km/h 13.0 km/h 51% 0.0 mm CLR
14:04 21.4 °C 10.8 °C 1014.8 hPa NNW 10.0 km/h 9.3 km/h 51% 0.0 mm CLR
14:09 21.5 °C 10.3 °C 1014.8 hPa NE 9.5 km/h 16.7 km/h 49% 0.0 mm CLR
14:14 21.4 °C 10.2 °C 1014.8 hPa NNE 9.5 km/h 14.8 km/h 49% 0.0 mm CLR
14:19 21.4 °C 10.2 °C 1014.7 hPa NE 10.0 km/h 9.3 km/h 49% 0.0 mm CLR
14:24 21.6 °C 10.4 °C 1014.7 hPa North 10.0 km/h 11.1 km/h 49% 0.0 mm CLR
14:29 21.8 °C 10.3 °C 1014.7 hPa NNE 8.7 km/h 18.5 km/h 48% 0.0 mm CLR
14:34 21.8 °C 10.3 °C 1014.7 hPa ENE 8.7 km/h 5.8 km/h 48% 0.0 mm CLR
14:39 21.8 °C 10.3 °C 1014.7 hPa NE 8.4 km/h 18.5 km/h 48% 0.0 mm CLR
14:44 21.7 °C 10.2 °C 1014.7 hPa North 8.4 km/h 14.8 km/h 48% 0.0 mm CLR
14:49 21.8 °C 10.6 °C 1014.5 hPa NE 11.1 km/h 14.8 km/h 49% 0.0 mm CLR
14:54 21.9 °C 10.7 °C 1014.5 hPa NE 11.1 km/h 14.8 km/h 49% 0.0 mm CLR
14:59 22.2 °C 11.0 °C 1014.5 hPa NE 10.3 km/h 18.3 km/h 49% 0.0 mm CLR
15:04 22.3 °C 10.8 °C 1014.5 hPa NNE 10.3 km/h 25.9 km/h 48% 0.0 mm CLR
15:09 22.2 °C 11.0 °C 1014.5 hPa ENE 13.7 km/h 18.5 km/h 49% 0.0 mm CLR
15:14 22.2 °C 11.0 °C 1014.5 hPa NE 13.7 km/h 27.8 km/h 49% 0.0 mm CLR
15:19 22.1 °C 11.2 °C 1014.5 hPa NE 13.0 km/h 18.5 km/h 50% 0.0 mm CLR
15:24 22.0 °C 11.1 °C 1014.5 hPa NE 13.0 km/h 22.2 km/h 50% 0.0 mm CLR
15:29 21.9 °C 11.0 °C 1014.5 hPa ENE 14.0 km/h 16.7 km/h 50% 0.0 mm CLR
15:34 22.0 °C 10.8 °C 1014.5 hPa NE 14.0 km/h 27.4 km/h 49% 0.0 mm CLR
15:39 21.9 °C 10.4 °C 1014.5 hPa NNE 14.0 km/h 27.8 km/h 48% 0.0 mm CLR
15:44 22.1 °C 11.2 °C 1014.5 hPa NNE 14.0 km/h 25.9 km/h 50% 0.0 mm CLR
15:49 22.1 °C 10.9 °C 1014.4 hPa NE 16.1 km/h 24.1 km/h 49% 0.0 mm CLR
15:54 21.9 °C 10.7 °C 1014.4 hPa NE 16.1 km/h 24.1 km/h 49% 0.0 mm CLR
15:59 21.9 °C 11.0 °C 1014.4 hPa NE 14.0 km/h 13.0 km/h 50% 0.0 mm CLR
16:04 22.0 °C 10.8 °C 1014.5 hPa ESE 14.0 km/h 16.7 km/h 49% 0.0 mm CLR
16:09 21.9 °C 10.7 °C 1014.5 hPa NNE 12.2 km/h 22.2 km/h 49% 0.0 mm CLR
16:14 21.7 °C 10.8 °C 1014.5 hPa NE 12.2 km/h 20.4 km/h 50% 0.0 mm CLR
16:19 21.8 °C 10.6 °C 1014.3 hPa NE 13.7 km/h 14.8 km/h 49% 0.0 mm CLR
16:24 21.8 °C 10.6 °C 1014.3 hPa ENE 13.7 km/h 18.5 km/h 49% 0.0 mm CLR
16:29 21.9 °C 10.7 °C 1014.3 hPa NE 10.0 km/h 10.0 km/h 49% 0.0 mm CLR
16:34 22.0 °C 10.5 °C 1014.3 hPa ENE 10.0 km/h 20.4 km/h 48% 0.0 mm CLR
16:39 22.0 °C 10.8 °C 1014.3 hPa NNE 10.3 km/h 20.4 km/h 49% 0.0 mm CLR
16:44 21.9 °C 10.7 °C 1014.3 hPa ENE 10.3 km/h 14.8 km/h 49% 0.0 mm CLR
16:49 21.9 °C 11.0 °C 1014.3 hPa ESE 11.1 km/h 13.0 km/h 50% 0.0 mm CLR
16:54 21.8 °C 10.9 °C 1014.3 hPa NE 11.1 km/h 11.9 km/h 50% 0.0 mm CLR
16:59 21.8 °C 10.9 °C 1014.3 hPa NNE 9.5 km/h 14.8 km/h 50% 0.0 mm CLR
17:04 21.7 °C 11.1 °C 1014.4 hPa NNE 9.5 km/h 16.7 km/h 51% 0.0 mm CLR
17:09 21.7 °C 11.1 °C 1014.4 hPa ENE 10.0 km/h 18.5 km/h 51% 0.0 mm CLR
17:14 21.9 °C 11.3 °C 1014.4 hPa NE 10.0 km/h 14.8 km/h 51% 0.0 mm CLR
17:19 22.1 °C 11.5 °C 1014.3 hPa NE 10.0 km/h 14.8 km/h 51% 0.0 mm CLR
17:24 22.1 °C 11.2 °C 1014.3 hPa NE 10.0 km/h 14.8 km/h 50% 0.0 mm CLR
17:29 22.1 °C 11.2 °C 1014.3 hPa NE 10.0 km/h 13.0 km/h 50% 0.0 mm CLR
17:34 22.1 °C 10.9 °C 1014.4 hPa NNE 10.0 km/h 14.8 km/h 49% 0.0 mm CLR
17:39 22.2 °C 11.0 °C 1014.4 hPa NE 8.7 km/h 18.5 km/h 49% 0.0 mm CLR
17:44 22.4 °C 11.2 °C 1014.4 hPa ESE 8.7 km/h 16.7 km/h 49% 0.0 mm CLR
17:49 22.7 °C 11.1 °C 1014.4 hPa ENE 9.5 km/h 8.7 km/h 48% 0.0 mm CLR
17:54 22.9 °C 11.0 °C 1014.4 hPa NNE 9.5 km/h 14.8 km/h 47% 0.0 mm CLR
17:59 22.7 °C 10.8 °C 1014.4 hPa NE 8.4 km/h 13.0 km/h 47% 0.0 mm CLR
18:04 22.7 °C 10.5 °C 1014.3 hPa NE 8.4 km/h 9.3 km/h 46% 0.0 mm CLR
18:09 22.9 °C 10.7 °C 1014.3 hPa NNW 5.8 km/h 7.4 km/h 46% 0.0 mm CLR
18:14 23.2 °C 10.9 °C 1014.3 hPa NNE 5.8 km/h 14.8 km/h 46% 0.0 mm CLR
18:19 23.3 °C 10.7 °C 1014.2 hPa WSW 5.0 km/h 7.6 km/h 45% 0.0 mm CLR
18:24 23.4 °C 10.8 °C 1014.2 hPa NNE 5.0 km/h 16.7 km/h 45% 0.0 mm CLR
18:29 23.3 °C 10.7 °C 1014.2 hPa ENE 6.9 km/h 9.5 km/h 45% 0.0 mm CLR
18:34 23.2 °C 10.6 °C 1014.0 hPa NW 6.9 km/h 9.3 km/h 45% 0.0 mm CLR
18:39 23.2 °C 10.6 °C 1014.0 hPa NNE 6.9 km/h 14.8 km/h 45% 0.0 mm CLR
18:44 23.2 °C 10.9 °C 1014.0 hPa NNW 6.9 km/h 13.0 km/h 46% 0.0 mm CLR
18:49 23.3 °C 11.0 °C 1014.0 hPa ENE 8.7 km/h 7.4 km/h 46% 0.0 mm CLR
18:54 23.3 °C 11.3 °C 1014.0 hPa ESE 8.7 km/h 15.6 km/h 47% 0.0 mm CLR
18:59 23.3 °C 11.3 °C 1014.0 hPa NE 6.4 km/h 11.1 km/h 47% 0.0 mm CLR
19:04 23.1 °C 11.2 °C 1014.0 hPa NE 6.4 km/h 9.3 km/h 47% 0.0 mm CLR
19:09 22.9 °C 11.3 °C 1014.0 hPa East 6.9 km/h 13.0 km/h 48% 0.0 mm CLR
19:14 22.8 °C 11.5 °C 1014.0 hPa East 6.9 km/h 12.2 km/h 49% 0.0 mm CLR
19:19 22.9 °C 11.3 °C 1014.1 hPa ENE 8.7 km/h 13.0 km/h 48% 0.0 mm CLR
19:24 22.8 °C 11.2 °C 1014.1 hPa NE 8.7 km/h 11.1 km/h 48% 0.0 mm CLR
19:29 22.8 °C 11.2 °C 1014.1 hPa ESE 6.9 km/h 11.1 km/h 48% 0.0 mm CLR
19:34 22.8 °C 11.5 °C 1014.2 hPa ENE 6.9 km/h 11.1 km/h 49% 0.0 mm CLR
19:39 22.8 °C 11.5 °C 1014.2 hPa East 6.9 km/h 18.5 km/h 49% 0.0 mm CLR
19:44 22.8 °C 11.5 °C 1014.2 hPa NE 6.9 km/h 13.0 km/h 49% 0.0 mm CLR
19:49 22.9 °C 11.6 °C 1014.2 hPa NNE 8.4 km/h 9.3 km/h 49% 0.0 mm CLR
19:54 22.9 °C 11.6 °C 1014.2 hPa NNE 8.4 km/h 14.8 km/h 49% 0.0 mm CLR
19:59 22.8 °C 11.5 °C 1014.2 hPa ENE 7.6 km/h 11.1 km/h 49% 0.0 mm CLR
20:04 22.8 °C 11.5 °C 1014.3 hPa ENE 7.6 km/h 13.0 km/h 49% 0.0 mm CLR
20:09 22.8 °C 11.2 °C 1014.3 hPa East 8.7 km/h 13.0 km/h 48% 0.0 mm CLR
20:14 22.8 °C 11.5 °C 1014.3 hPa ENE 8.7 km/h 9.3 km/h 49% 0.0 mm CLR
20:19 22.7 °C 11.1 °C 1014.4 hPa East 7.6 km/h 9.5 km/h 48% 0.0 mm CLR
20:24 22.6 °C 11.9 °C 1014.4 hPa NNE 7.6 km/h 13.0 km/h 51% 0.0 mm CLR
20:29 22.5 °C 12.2 °C 1014.4 hPa NNE 9.5 km/h 14.8 km/h 52% 0.0 mm CLR
20:34 22.3 °C 12.3 °C 1014.6 hPa NE 9.5 km/h 20.4 km/h 53% 0.0 mm CLR
20:39 21.9 °C 12.2 °C 1014.6 hPa NE 12.2 km/h 16.4 km/h 54% 0.0 mm CLR
20:44 21.7 °C 12.3 °C 1014.6 hPa NE 12.2 km/h 16.7 km/h 55% 0.0 mm CLR
20:49 21.6 °C 12.2 °C 1014.8 hPa ENE 11.9 km/h 20.4 km/h 55% 0.0 mm CLR
20:54 21.3 °C 12.4 °C 1014.8 hPa NE 11.9 km/h 18.0 km/h 57% 0.0 mm CLR
20:59 21.1 °C 12.5 °C 1014.8 hPa ENE 13.0 km/h 20.9 km/h 58% 0.0 mm CLR
21:04 20.9 °C 12.6 °C 1015.0 hPa ENE 13.0 km/h 14.8 km/h 59% 0.0 mm CLR
21:09 20.7 °C 12.7 °C 1015.0 hPa NNE 12.2 km/h 11.1 km/h 60% 0.0 mm CLR
21:14 20.5 °C 12.4 °C 1015.0 hPa NNE 12.2 km/h 13.0 km/h 60% 0.0 mm CLR
21:19 20.3 °C 12.6 °C 1015.1 hPa East 8.7 km/h 13.0 km/h 61% 0.0 mm CLR
21:24 20.2 °C 12.7 °C 1015.1 hPa East 8.7 km/h 5.8 km/h 62% 0.0 mm CLR
21:29 20.1 °C 12.6 °C 1015.1 hPa ENE 7.6 km/h 11.1 km/h 62% 0.0 mm CLR
21:34 19.9 °C 12.4 °C 1015.4 hPa NE 7.6 km/h 11.1 km/h 62% 0.0 mm CLR
21:39 19.8 °C 12.6 °C 1015.4 hPa East 8.4 km/h 11.1 km/h 63% 0.0 mm CLR
21:44 19.7 °C 12.4 °C 1015.4 hPa ESE 8.4 km/h 9.3 km/h 63% 0.0 mm CLR
21:49 19.6 °C 12.6 °C 1015.6 hPa NE 7.6 km/h 10.3 km/h 64% 0.0 mm CLR
21:54 19.4 °C 12.9 °C 1015.6 hPa North 7.6 km/h 9.3 km/h 66% 0.0 mm CLR
21:59 19.3 °C 12.8 °C 1015.6 hPa NE 6.9 km/h 11.1 km/h 66% 0.0 mm CLR
22:04 19.2 °C 12.9 °C 1016.0 hPa ENE 6.9 km/h 11.1 km/h 67% 0.0 mm CLR
22:09 19.1 °C 12.8 °C 1016.0 hPa NE 6.4 km/h 9.3 km/h 67% 0.0 mm CLR
22:14 19.0 °C 12.9 °C 1016.0 hPa ESE 6.4 km/h 11.1 km/h 68% 0.0 mm CLR
22:19 18.8 °C 12.8 °C 1016.2 hPa ESE 6.4 km/h 9.3 km/h 68% 0.0 mm CLR
22:24 18.8 °C 12.8 °C 1016.2 hPa East 6.4 km/h 9.3 km/h 68% 0.0 mm CLR
22:29 18.8 °C 12.8 °C 1016.2 hPa ESE 6.9 km/h 11.1 km/h 68% 0.0 mm CLR
22:34 18.8 °C 12.8 °C 1016.4 hPa East 6.9 km/h 13.0 km/h 68% 0.0 mm CLR
22:39 18.8 °C 13.0 °C 1016.4 hPa SSE 8.4 km/h 11.1 km/h 69% 0.0 mm CLR
22:44 18.8 °C 13.0 °C 1016.4 hPa SE 8.4 km/h 11.1 km/h 69% 0.0 mm CLR
22:49 18.8 °C 13.0 °C 1016.6 hPa ESE 6.9 km/h 9.3 km/h 69% 0.0 mm CLR
22:54 18.8 °C 13.0 °C 1016.6 hPa SE 6.9 km/h 11.1 km/h 69% 0.0 mm CLR
22:59 18.8 °C 13.0 °C 1016.6 hPa SE 6.4 km/h 13.0 km/h 69% 0.0 mm CLR
23:04 18.7 °C 13.1 °C 1016.7 hPa East 6.4 km/h 14.8 km/h 70% 0.0 mm CLR
23:09 18.6 °C 13.0 °C 1016.7 hPa SE 10.0 km/h 11.1 km/h 70% 0.0 mm CLR
23:14 18.6 °C 13.0 °C 1016.7 hPa ESE 10.0 km/h 8.7 km/h 70% 0.0 mm CLR
23:19 18.5 °C 13.2 °C 1017.0 hPa ESE 6.4 km/h 10.3 km/h 71% 0.0 mm CLR
23:24 18.4 °C 13.1 °C 1017.0 hPa East 6.4 km/h 8.4 km/h 71% 0.0 mm CLR
23:29 18.4 °C 13.1 °C 1017.0 hPa East 6.4 km/h 9.3 km/h 71% 0.0 mm CLR
23:34 18.4 °C 13.1 °C 1017.1 hPa SE 6.4 km/h 11.1 km/h 71% 0.0 mm CLR
23:39 18.4 °C 12.8 °C 1017.1 hPa SE 6.9 km/h 7.4 km/h 70% 0.0 mm CLR
23:44 18.5 °C 12.9 °C 1017.1 hPa ESE 6.9 km/h 7.6 km/h 70% 0.0 mm CLR
23:49 18.4 °C 12.8 °C 1017.1 hPa ESE 4.7 km/h 7.4 km/h 70% 0.0 mm CLR
23:54 18.4 °C 13.1 °C 1017.1 hPa ESE 4.7 km/h 7.4 km/h 71% 0.0 mm CLR
23:59 18.3 °C 12.9 °C 1017.1 hPa ESE 5.8 km/h 11.1 km/h 71% 0.0 mm CLR
Murcia-Puente Tocinos, España
Compliments of Weather Underground - 2.5 mb

La estación de MeteoMurcia.com, publica sus datos en los siguientes proyectos:

Weather Underground PWS IMURCIAP2 Meteoclimatic www.awekas.at

W3Counter
Web Analytics